MPEC 2001-F33: 2001 FP32

The following Minor Planet Electronic Circular may be linked-to from your own Web pages, but must not otherwise be redistributed electronically.


Read MPEC 2001-F32 Read MPEC 2001-F34


M.P.E.C. 2001-F33                                Issued 2001 Mar. 24, 22:21 UT

     The Minor Planet Electronic Circulars contain information on unusual
         minor planets and routine data on comets.  They are published
   on behalf of Commission 20 of the International Astronomical Union by the
          Minor Planet Center, Smithsonian Astrophysical Observatory,
                          Cambridge, MA 02138, U.S.A.

             Prepared using the Tamkin Foundation Computer Network

                              MPC@CFA.HARVARD.EDU
          URL http://cfa-www.harvard.edu/iau/mpc.html  ISSN 1523-6714

                                   2001 FP32

Observations:
     K01F32P* C2001 03 20.39766 12 05 00.39 -19 05 35.9          19.2        608
     K01F32P  C2001 03 20.40822 12 05 03.61 -19 02 28.9          19.2        608
     K01F32P  C2001 03 20.41881 12 05 06.84 -18 59 21.1          19.2        608
     K01F32P  C2001 03 21.36301 12 11 02.29 -13 51 24.8                      608
     K01F32P  C2001 03 21.37418 12 11 06.34 -13 47 25.0                      608
     K01F32P  C2001 03 21.38523 12 11 10.35 -13 43 27.5                      608
     K01F32P  C2001 03 23.28509 12 25 45.68 +00 00 06.1          18.3        649
     K01F32P  C2001 03 23.28586 12 25 46.04 +00 00 29.7          18.5        649
     K01F32P  C2001 03 23.29110 12 25 48.60 +00 03 10.5          18.4        649
     K01F32P  C2001 03 24.23457 12 34 58.40 +08 41 27.5          18.4 R      854
     K01F32P  C2001 03 24.23512 12 34 58.86 +08 41 48.2          17.7 R      854
     K01F32P  C2001 03 24.23566 12 34 59.00 +08 42 07.7          18.4 R      854

Observer details:
608 Haleakala-NEAT/MSSS.  Observers E. F. Helin, S. Pravdo, K. Lawrence,
    P. Kervin, R. Maeda, J. Africano.  Measurer M. Hicks.
    1.2-m reflector + CCD.
649 Powell Observatory, Louisburg.  Observers D. Young, S. Granger,
    D. Trentman.  Measurers K. Smalley, D. Probert.  0.75-m Newtonian + CCD.
854 Sabino Canyon Observatory, Tucson.  Observer J. E. McGaha.  0.30-m f/6.1
    Schmidt-Cassegrain + CCD.

Orbital elements:
2001 FP32
Epoch 2001 Mar. 12.0 TT = JDT 2451980.5                 Spahr
M 320.21909              (2000.0)            P               Q
n   0.61145040     Peri.   64.15503     -0.39972588     +0.91635558
a   1.3747653      Node   182.62036     -0.91222135     -0.39526148
e   0.3407573      Incl.   29.65509     +0.08984110     +0.06372458
P   1.61           H   23.4           G   0.15
From 12 observations 2001 Mar. 20-24.

Ephemeris:
2001 FP32                a,e,i = 1.37, 0.34, 30                  q = 0.9063
Date    TT    R. A. (2000) Decl.     Delta      r     Elong.  Phase     V
2001 03 12    11 34.35   -39 47.2    0.156    1.113   136.8    37.7    21.1
2001 03 17    11 49.00   -31 13.6    0.108    1.087   147.4    29.6    20.0
2001 03 22    12 15.40   -09 47.5    0.067    1.063   170.4     9.0    18.3
2001 03 27    13 11.87   +37 31.2    0.054    1.039   138.4    39.6    18.7
2001 04 01    15 33.0    +70 20.4    0.082    1.017    99.9    75.5    20.6
2001 04 06    18 55.8    +75 14.6    0.125    0.996    84.1    88.7    22.0
2001 04 11    20 36.1    +72 46.1    0.171    0.976    76.4    93.8    22.9

Timothy B. Spahr             (C) Copyright 2001 MPC           M.P.E.C. 2001-F33

Read MPEC 2001-F32 Read MPEC 2001-F34


Our Web policy. Index to the CBAT/MPC/ICQ pages.

MPC